#timestamp,LO_Frequency,Hit,StdDev 
1656014415.1,286046998.6,N
1656014416.0,286046998.6,N
1656014435.8,286046998.6,N
1656014455.7,286046998.5,N
1656014475.5,286046999.3,N
1656014495.3,286046999.2,N
1656014515.2,286046998.4,N
1656014535.0,286046998.7,N
1656014535.9,286046998.7,N
1656014555.8,286046997.0,N
1656014575.6,286046998.4,N
1656014595.4,286046998.4,N
1656014615.3,286046998.6,N
1656014635.1,286046998.3,N
1656014655.8,286046999.3,N
1656014675.7,286046998.8,N
1656014695.5,286046999.6,N
1656014715.4,286046998.5,N
1656014735.2,286046998.2,N
1656014755.0,286046998.2,N
1656014755.9,286046998.2,N
1656014775.8,286047001.2,N
1656014795.6,286047001.0,N
1656014815.4,286046998.6,N
1656014835.3,286047001.2,N
1656014855.1,286046998.6,N
1656014875.9,286046998.2,N
1656014895.7,286047000.8,N
1656014915.5,286047000.7,N
1656014935.4,286047000.8,N
1656014955.2,286047001.0,N
1656014975.0,286047000.5,N
1656014976.0,286047000.5,N
1656014995.8,286047000.2,N
1656015015.6,286047000.1,N
1656015035.5,286047000.4,N
1656015055.3,286046999.8,N
1656015075.1,286047002.7,N
1656015095.9,286047000.2,N
1656015115.7,286047000.5,N
1656015135.6,286047000.4,N
1656015155.4,286047000.6,N
1656015175.2,286047000.3,N
1656015195.1,286047000.5,N
1656015196.0,286047000.5,N
1656015215.8,286047002.7,N
1656015235.6,286047002.1,N
1656015255.5,286047002.3,N
1656015275.3,286047002.5,N
1656015295.2,286047000.0,N
1656015315.0,286047000.1,N
1656015315.9,286047000.1,N
1656015335.8,286047000.2,N
1656015355.6,286047002.8,N
1656015375.4,286047000.2,N
1656015395.3,286047000.1,N
1656015415.1,286047002.4,N
1656015435.8,286047000.4,N
1656015455.7,286047002.6,N
1656015475.5,286047002.6,N
1656015495.4,286047001.9,N
1656015515.2,286047002.6,N
1656015535.0,286047001.8,N
1656015535.9,286047001.8,N
1656015555.8,286047002.5,N
1656015575.6,286047002.1,N
1656015595.4,286047001.5,N
1656015615.3,286047002.4,N
1656015635.1,286047002.2,N
1656015655.9,286047002.5,N
1656015675.7,286047002.6,N
1656015695.5,286047002.4,N
1656015715.4,286047000.0,N
1656015735.2,286047002.5,N
1656015755.0,286047001.7,N
1656015756.0,286047001.7,N
1656015775.8,286047002.5,N
1656015795.6,286047002.6,N
1656015815.5,286047002.7,N
1656015835.3,286047002.6,N
1656015855.1,286047000.1,N
1656015875.9,286046999.8,N
1656015895.7,286047002.3,N
1656015915.5,286047000.5,N
1656015935.4,286046999.9,N
1656015955.2,286047000.3,N
1656015975.1,286047000.5,N
1656015976.0,286047000.5,N
1656015995.8,286047000.2,N
1656016015.6,286047000.7,N
1656016035.5,286047001.1,N
1656016055.3,286047000.5,N
1656016075.2,286047000.2,N
1656016095.9,286047001.9,N
1656016115.7,286047002.3,N
1656016135.6,286047001.6,N
1656016155.4,286047001.3,N
1656016175.2,286047003.9,Y
1656016195.1,286047002.4,P
1656016196.0,286047002.4,P
1656016215.8,286047000.7,N
1656016235.7,286046998.1,N
1656016255.5,286046998.3,N
1656016275.3,286046998.4,N
1656016295.2,286046998.1,N
1656016315.0,286046998.6,N
1656016315.9,286046998.6,N
1656016335.8,286047000.8,N
1656016355.6,286047000.4,N
1656016375.4,286047000.1,N
1656016395.3,286047002.8,N
1656016415.1,286047000.1,N
1656016435.9,286047000.1,N
1656016455.7,286047000.6,N
1656016475.5,286046998.3,N
1656016495.4,286047000.0,N
1656016515.2,286047000.0,N
1656016535.0,286047000.5,N
1656016535.9,286047000.5,N
1656016555.8,286047000.4,N
1656016575.6,286046999.9,N
1656016595.5,286047000.0,N
1656016615.3,286047000.9,N
1656016635.1,286047000.5,N
1656016655.9,286047000.9,N
1656016675.7,286047000.0,N
1656016695.5,286047000.3,N
1656016715.4,286047000.5,N
1656016735.2,286047000.3,N
1656016755.1,286047000.2,N
1656016756.0,286047000.2,N
1656016775.8,286047002.8,N
1656016795.6,286047002.3,N
1656016815.5,286047002.3,N
1656016835.3,286047002.7,N
1656016855.1,286047002.7,N
1656016875.9,286047002.4,N
1656016895.7,286047000.1,N
1656016915.6,286046999.7,N
1656016935.4,286047002.5,N
1656016955.2,286047002.1,N
1656016975.1,286047001.7,N
1656016976.0,286047001.7,N
1656016995.8,286047001.7,N
1656017015.6,286047002.3,N
1656017035.5,286047002.5,N
1656017055.3,286047004.4,Y
1656017075.2,286046999.9,P
1656017095.9,286047002.6,P
1656017115.7,286047002.7,N
1656017135.6,286047002.7,N
1656017155.4,286047000.2,N
1656017175.2,286047002.8,N
1656017195.1,286047002.4,N
1656017196.0,286047002.4,N
1656017215.8,286047002.8,N
1656017235.7,286047002.3,N
1656017255.5,286047000.1,N
1656017275.3,286047000.1,N
1656017295.2,286046999.7,N
1656017315.0,286047000.2,N
1656017315.9,286047000.2,N
1656017335.8,286046999.7,N
1656017355.6,286047000.2,N
1656017375.4,286047000.1,N
1656017395.3,286047000.9,N
1656017415.1,286046999.9,N
1656017435.8,286047002.7,N
1656017455.7,286046999.8,N
1656017475.5,286046999.9,N
1656017495.4,286047000.2,N
1656017515.2,286047001.0,N
1656017535.0,286047000.6,N
1656017535.9,286047000.6,N
1656017555.8,286047001.2,N
1656017575.6,286047001.0,N
1656017595.4,286047000.8,N
1656017615.3,286047000.8,N
1656017635.1,286046999.7,N
1656017655.9,286047000.4,N
1656017675.7,286047000.9,N
1656017695.5,286047000.3,N
1656017715.4,286047000.9,N
1656017735.2,286047000.8,N
1656017755.0,286046998.3,N
1656017755.9,286046998.3,N
1656017775.8,286046998.3,N
1656017795.6,286046998.7,N
1656017815.5,286046998.2,N
1656017835.3,286046998.1,N
1656017855.1,286046998.1,N
1656017875.9,286047000.3,N
1656017895.7,286046998.6,N
1656017915.5,286047001.1,N
1656017935.4,286046998.8,N
1656017955.2,286046998.8,N
1656017975.1,286047000.8,N
1656017976.0,286047000.8,N
1656017995.8,286047001.0,N
